GFSNE_sfc_rhum_126.txt.gz
RH
97 97 98 98 98 97 96 94 93 98 98 99 99 98 98 96 92 95 95 84 82 79 78 75 78 78 78 76 75 74 72 74 74 78 84 83 86 88
98 98 98 98 98 98 98 96 96 94 97 98 100 99 98 93 93 94 93 87 84 83 82 83 80 79 77 75 74 72 70 71 75 82 87 86 92 87
99 99 99 98 99 99 99 98 98 98 98 100 100 99 98 96 94 94 93 93 93 86 83 81 84 79 73 71 72 70 67 69 76 85 91 94 96 92
99 99 99 99 99 99 99 98 98 98 97 99 100 100 98 95 96 95 92 82 91 83 82 82 82 75 71 72 71 70 68 68 77 87 93 96 94 91
98 98 98 99 99 99 99 99 99 99 98 97 100 98 98 98 97 95 93 93 83 79 77 78 80 78 73 70 69 72 70 67 76 88 93 96 95 89
99 98 98 98 98 98 99 99 99 99 97 96 98 99 98 99 97 96 97 96 95 83 77 75 78 79 74 67 69 73 69 66 75 89 92 97 96 91
99 99 98 99 100 96 97 99 98 98 98 96 98 99 99 100 98 98 99 98 96 96 94 92 88 85 78 68 76 73 67 66 74 88 93 98 96 93
99 99 99 100 99 98 97 96 94 95 97 98 100 99 97 95 98 98 98 99 98 93 94 93 82 87 80 75 69 74 67 67 72 86 93 98 98 96
99 99 99 99 98 96 95 94 91 87 84 90 94 94 94 94 96 98 98 98 97 92 89 95 87 83 82 68 70 74 67 69 72 83 92 97 98 98
97 97 97 98 96 94 93 96 96 94 92 90 89 91 89 94 90 92 95 96 96 90 82 97 92 86 81 77 72 76 77 71 74 80 88 95 97 97
90 91 93 94 92 89 94 97 94 92 82 84 86 85 85 86 91 96 99 99 99 97 87 90 88 88 89 87 87 80 85 77 74 77 78 90 94 96
91 94 93 91 91 89 92 92 95 96 95 92 94 90 87 87 87 93 97 100 99 99 91 93 89 90 96 89 93 95 95 85 86 82 76 78 89 96
94 94 96 90 92 93 92 94 90 87 88 86 86 92 91 96 98 97 96 99 100 100 86 92 97 96 98 97 96 98 98 96 96 94 90 76 80 89
95 96 95 92 94 93 93 90 82 81 91 86 88 94 95 96 98 98 99 99 99 100 94 97 96 93 98 95 94 96 98 99 99 98 98 89 84 76
91 92 92 91 91 93 88 84 83 88 87 87 88 94 96 95 99 99 98 97 98 98 99 98 96 97 97 95 95 98 97 97 99 99 99 98 98 96
89 95 92 92 92 94 93 91 95 87 84 84 89 95 98 98 100 98 100 99 100 100 96 99 99 98 99 97 100 98 99 91 99 100 99 99 95 93
92 97 99 99 99 99 99 98 97 92 88 86 94 96 98 98 98 99 99 97 100 100 100 96 93 93 99 99 99 99 99 98 99 99 98 99 97 94
97 98 97 97 97 97 97 98 98 92 91 89 88 91 96 98 98 99 99 98 100 100 99 98 100 97 92 90 90 98 99 98 99 100 99 97 93 86
98 96 94 93 92 95 96 96 97 96 96 93 91 92 93 96 98 98 97 98 98 100 100 99 100 96 94 89 92 84 96 98 99 99 99 99 98 89
98 97 95 92 91 93 95 95 95 98 98 98 95 93 94 95 99 98 98 95 96 100 100 100 99 99 93 90 93 98 84 97 98 96 98 98 93 81
98 98 95 92 93 94 95 96 98 97 98 98 96 96 94 95 98 99 98 97 97 100 100 100 98 86 97 98 98 97 96 84 87 94 96 97 96 96
98 98 98 98 99 99 100 100 99 99 98 98 98 98 96 93 94 96 97 97 92 97 99 99 100 98 98 98 100 98 98 96 83 82 82 79 91 86
98 98 98 98 99 100 100 99 99 98 98 98 98 97 97 97 94 93 94 94 95 98 98 100 99 99 94 91 90 92 93 94 98 96 93 77 83 84

GFSNE_sfc_rhum_129.txt.gz
RH
88 88 88 90 92 92 94 90 88 85 84 87 92 85 88 95 97 93 83 86 83 79 78 74 76 78 77 76 75 75 71 70 70 71 78 82 82 86
90 92 93 92 92 93 93 93 91 88 91 86 92 97 97 98 96 87 80 86 82 81 80 81 80 79 74 74 74 74 71 69 69 71 83 88 89 87
97 98 95 96 98 98 99 98 98 95 98 99 99 98 99 96 89 82 80 74 73 83 82 78 80 80 71 72 74 72 72 70 69 76 88 92 94 88
98 99 98 99 99 98 99 98 98 98 98 98 99 100 98 96 86 82 78 68 70 77 81 79 81 78 72 71 73 72 73 71 69 80 90 94 95 90
96 98 98 99 98 98 99 99 99 99 99 98 99 99 99 97 93 86 81 78 73 77 77 80 81 80 76 73 70 72 73 70 69 84 91 94 95 91
98 98 97 98 98 98 98 98 99 99 99 99 99 99 97 95 88 88 87 81 76 72 72 72 77 80 77 68 68 73 71 68 70 86 91 96 97 91
99 98 98 98 100 98 98 98 98 98 99 99 100 99 98 99 94 87 84 82 79 78 76 72 70 70 66 63 67 74 70 67 71 86 92 98 95 94
98 99 99 100 99 99 99 98 94 98 98 99 100 98 93 86 84 87 90 91 88 79 78 76 66 72 64 59 68 72 70 68 74 86 93 98 96 96
99 99 99 99 99 99 99 98 98 97 95 96 97 96 90 84 90 96 89 90 87 80 77 82 69 68 64 56 69 74 73 70 78 85 92 97 97 97
99 99 99 99 99 99 99 99 99 99 98 96 93 90 85 87 81 85 88 87 87 80 75 92 73 68 63 61 72 77 78 73 77 80 90 94 98 97
97 97 97 99 97 96 98 99 97 99 95 94 94 92 90 87 85 88 97 98 97 90 82 83 79 75 68 63 64 80 84 80 78 77 82 94 96 95
89 92 93 92 95 94 94 96 99 98 98 98 97 94 88 87 86 83 92 100 100 98 85 92 81 78 88 71 73 73 75 83 84 86 77 89 94 95
92 91 93 92 95 94 90 92 92 96 95 96 92 88 89 92 96 90 91 99 100 99 84 91 97 86 89 82 75 80 80 78 78 80 88 79 89 93
90 89 91 93 94 94 90 89 92 94 98 94 91 87 87 95 98 96 96 96 95 99 86 98 100 99 97 80 70 76 83 86 90 93 92 80 83 83
86 89 92 94 96 96 94 91 93 96 94 92 91 91 91 93 100 99 99 99 100 99 100 100 100 92 97 94 83 80 84 89 90 94 88 89 89 82
92 92 93 94 93 94 97 93 96 91 91 91 90 91 92 97 97 96 98 97 97 97 98 100 98 92 96 90 88 82 83 93 90 92 87 86 77 73
94 96 99 99 99 99 98 98 98 98 98 97 96 96 93 94 94 94 93 94 89 92 97 96 96 94 94 95 93 83 79 85 90 93 92 93 83 74
97 99 98 98 98 98 98 98 98 97 96 96 96 95 95 96 97 96 94 92 89 89 90 96 97 95 89 84 88 83 83 84 89 90 86 86 80 67
98 98 98 97 96 96 97 97 98 97 98 98 98 98 98 96 94 98 97 92 90 88 94 95 96 88 84 74 80 81 88 86 86 86 82 80 80 71
98 98 98 97 95 96 97 99 99 99 99 98 98 98 98 95 97 97 95 94 89 90 96 97 94 91 85 87 87 91 83 88 83 82 86 81 78 77
98 98 98 97 96 96 96 99 99 100 99 99 99 98 98 97 97 96 94 90 88 92 97 96 91 82 94 92 88 87 86 84 80 93 90 80 75 68
98 98 97 98 98 99 100 99 99 99 100 99 99 98 97 96 97 96 94 94 90 89 87 91 96 96 94 90 84 89 83 81 81 83 79 76 91 78
95 97 98 98 99 99 100 99 99 99 99 99 99 99 97 97 96 95 93 92 90 90 89 96 95 88 88 88 89 88 91 89 82 83 81 80 83 82

GFSNE_sfc_rhum_132.txt.gz
RH
80 79 75 72 76 76 80 88 86 87 93 80 92 86 78 77 81 80 92 95 91 81 78 79 78 78 77 76 74 75 75 72 70 71 69 78 85 84
84 77 76 73 75 83 91 90 87 82 84 65 80 88 86 90 90 94 96 96 88 82 81 80 78 79 76 74 74 75 75 74 72 72 71 85 89 89
86 84 79 77 86 92 93 97 91 96 98 84 93 91 94 94 97 97 94 89 81 84 81 82 80 83 77 72 74 76 75 74 74 72 78 89 92 91
89 94 89 93 96 92 98 98 98 98 99 98 99 99 99 97 97 97 93 80 68 81 82 81 78 83 76 72 73 74 74 74 73 70 86 91 93 90
96 93 90 97 98 98 99 99 99 98 98 98 100 99 99 99 99 98 94 82 66 76 78 81 81 82 78 75 73 72 74 73 71 72 89 92 97 92
97 97 96 96 91 98 98 98 97 98 98 99 99 99 98 98 98 98 98 85 74 64 69 69 75 81 82 79 70 71 76 72 68 78 90 95 97 94
99 99 98 98 100 98 97 97 98 98 99 99 100 100 99 99 98 98 97 93 73 68 69 68 68 69 69 71 64 71 74 70 69 83 91 97 95 95
99 99 98 100 99 100 100 99 96 98 98 98 98 98 97 98 98 97 97 90 88 72 72 79 68 69 64 60 62 70 74 70 73 85 93 98 96 96
97 98 99 99 99 99 99 99 99 99 98 95 97 98 97 95 96 98 93 92 87 80 75 78 70 69 61 51 68 72 75 72 77 84 93 98 95 96
96 98 98 98 99 99 99 99 99 99 99 99 98 98 98 96 90 92 91 88 86 77 74 91 72 68 62 60 70 76 81 74 78 81 92 96 96 97
82 88 95 96 95 98 95 99 96 99 97 97 96 96 96 93 93 95 99 97 96 93 85 88 81 80 70 64 56 77 80 77 85 81 89 94 98 97
69 75 90 91 94 97 98 96 98 97 98 99 100 99 98 97 94 93 95 100 100 98 88 96 85 82 88 65 66 66 71 82 82 83 84 94 96 96
73 71 73 90 94 96 95 94 93 92 95 97 98 99 99 99 98 93 94 100 100 100 86 96 100 89 96 84 72 72 72 72 72 76 83 89 94 95
78 70 71 88 94 96 96 92 90 92 97 97 97 98 99 99 100 97 96 97 95 100 89 100 100 100 100 86 75 75 80 82 87 92 92 83 90 91
73 81 90 91 92 94 96 92 91 97 98 99 98 97 97 99 100 100 100 100 100 99 100 100 100 100 100 99 86 77 86 88 88 91 86 87 88 92
85 88 89 91 92 92 96 97 98 98 98 98 96 98 99 99 99 99 100 100 100 99 99 100 100 100 100 94 92 82 81 97 91 89 84 81 71 70
92 95 97 98 99 99 99 99 99 98 98 97 98 97 97 98 99 98 99 99 99 98 99 97 96 95 96 100 97 83 77 84 90 93 85 91 80 66
94 98 98 98 98 98 98 98 98 98 98 98 98 98 99 98 98 98 98 98 94 90 92 96 98 98 95 87 88 83 79 84 89 89 80 90 85 67
92 98 98 98 98 97 97 98 98 97 100 99 99 99 99 98 98 97 97 97 94 91 92 93 98 92 90 82 81 85 97 86 85 82 76 74 83 70
90 93 98 98 98 98 98 99 99 99 100 99 99 99 99 98 98 97 96 97 96 94 94 93 93 94 95 92 89 86 83 91 81 83 85 75 76 78
91 94 92 94 97 98 99 100 100 100 100 99 100 100 99 98 98 97 96 95 95 95 94 92 90 78 96 98 89 85 86 85 80 97 94 83 74 64
86 90 92 93 95 99 100 100 100 100 100 99 99 99 99 99 98 96 96 96 96 92 90 91 94 93 94 91 84 87 83 81 83 80 77 82 98 91
85 86 84 94 96 97 100 100 100 99 100 100 99 99 99 99 98 97 96 96 95 94 92 92 93 88 86 87 84 85 87 82 78 81 81 79 82 79

GFSNE_sfc_rhum_135.txt.gz
RH
88 86 80 76 76 76 82 82 80 84 83 85 92 88 90 90 92 85 83 92 88 87 86 83 78 79 78 77 76 75 75 75 74 72 72 70 78 84
96 95 95 90 87 86 80 80 86 84 87 82 92 95 96 97 95 88 90 95 92 89 87 86 83 80 78 77 74 74 76 76 74 73 72 71 85 88
95 94 91 88 90 85 84 79 96 95 94 92 97 96 97 98 99 97 96 96 96 92 90 88 85 82 81 78 74 74 75 76 74 73 72 78 88 87
88 88 86 88 89 87 91 94 95 94 96 97 97 100 99 99 98 99 98 93 93 92 90 88 84 81 82 78 74 74 75 75 74 72 70 84 89 90
91 96 94 95 96 97 98 98 98 99 99 99 96 99 99 99 99 99 99 97 91 91 90 86 82 80 83 78 76 74 74 75 73 71 73 88 93 93
98 97 95 95 94 97 98 98 98 98 98 99 97 100 99 99 99 99 99 99 96 83 85 79 81 82 82 80 79 72 72 75 72 70 79 90 96 94
99 99 98 99 100 97 97 96 97 97 95 93 95 100 99 99 98 98 97 98 98 93 88 80 79 86 86 83 76 69 71 73 72 72 84 92 98 94
99 99 99 100 99 100 100 100 100 99 98 98 98 99 96 97 97 97 97 99 100 95 95 95 84 85 81 79 67 68 72 75 72 77 88 93 94 94
99 98 98 98 99 99 98 98 98 99 99 97 98 98 97 96 98 100 99 99 99 99 97 97 86 90 78 62 67 69 72 75 73 79 90 94 91 91
92 92 94 95 95 98 99 99 99 98 98 99 98 96 95 95 92 96 98 99 98 98 97 100 91 90 78 75 69 72 76 77 78 80 89 95 95 96
77 81 87 91 92 95 99 99 98 97 94 95 95 94 94 94 94 97 99 99 100 99 98 98 95 92 85 81 78 72 78 77 79 84 90 95 97 97
71 72 87 89 92 94 99 99 99 98 99 99 99 98 96 96 93 93 96 100 100 100 99 99 99 96 97 83 81 82 92 80 81 86 90 95 96 98
77 75 76 84 88 93 96 99 97 95 96 99 99 99 99 99 99 99 96 99 100 100 97 99 100 98 100 97 96 88 88 88 90 89 88 94 94 95
76 72 76 89 90 90 92 94 95 94 99 99 99 99 99 100 100 99 99 100 100 100 96 100 100 100 100 97 95 96 98 98 99 97 100 92 94 93
77 86 91 93 94 92 92 94 95 99 99 99 99 98 99 100 100 100 100 100 100 100 100 100 100 100 100 100 94 96 98 99 97 98 99 100 99 99
84 86 83 87 86 91 92 93 97 99 98 98 98 99 99 100 100 100 100 100 99 99 100 100 100 100 100 100 98 96 98 99 95 94 98 97 90 89
82 86 92 96 92 93 96 98 98 100 99 98 99 99 99 100 99 100 100 99 100 99 99 99 100 99 100 100 99 97 97 98 99 94 96 99 97 89
81 89 89 95 97 94 98 97 98 98 98 99 99 98 99 99 99 99 99 99 99 99 99 99 98 99 98 95 93 96 97 98 99 96 97 99 99 90
82 90 93 93 94 95 92 97 96 91 100 100 100 100 100 99 99 98 98 98 99 98 99 98 98 98 98 98 97 86 97 98 98 98 97 96 98 92
82 82 84 86 91 95 97 98 96 95 99 100 100 100 100 99 99 98 97 97 98 98 98 98 98 96 94 94 97 98 89 96 96 96 97 97 92 76
85 79 78 80 82 86 94 97 99 100 100 100 100 99 99 99 98 98 98 97 97 97 97 97 95 86 99 98 97 97 98 83 88 96 95 96 96 92
83 76 82 78 83 87 94 97 95 98 100 100 99 99 99 99 98 98 98 97 97 96 97 98 98 98 96 94 94 96 96 98 84 80 80 87 93 93
78 81 80 83 85 92 97 98 96 98 97 99 99 99 99 99 98 98 98 98 98 97 97 97 97 95 92 93 91 93 96 97 98 98 98 79 77 82